This is the latest recevied weather packets stored in our database for station/object N0SWP-3. If no packets are shown the sender has not sent any weather packets the latest 10 day(s).
| Time | Temp. | Humidity | Pressure | Rain* | Wind** | Luminosity | Snow |
|---|---|---|---|---|---|---|---|
| 1777690623 | 12.22° C | 64% | 1018.9 hPa | 0 mm | - | - | - |
| 1777689543 | 13.33° C | 60% | 1018.6 hPa | 0 mm | - | - | - |
| 1777688103 | 14.44° C | 55% | 1018.3 hPa | 0 mm | - | - | - |
| 1777686124 | 15° C | 51% | 1017.7 hPa | 0 mm | - | - | - |
| 1777685403 | 15° C | 49% | 1017.5 hPa | 0 mm | - | - | - |
| 1777684323 | 15.56° C | 46% | 1017.3 hPa | 0 mm | - | - | - |
| 1777683963 | 16.11° C | 44% | 1017.2 hPa | 0 mm | - | - | - |
| 1777683603 | 16.67° C | 43% | 1017.1 hPa | 0 mm | - | - | - |
| 1777683244 | 16.67° C | 42% | 1017 hPa | 0 mm | - | - | - |
| 1777682837 | 17.78° C | 40% | 1016.9 hPa | 0 mm | - | - | - |
| 1777681263 | 17.78° C | 39% | 1016.8 hPa | 0 mm | - | - | - |
| 1777679463 | 18.33° C | 37% | 1016.7 hPa | 0 mm | - | - | - |
| 1777678743 | 17.78° C | 38% | 1016.8 hPa | 0 mm | - | - | - |
| 1777674784 | 18.89° C | 37% | 1016.6 hPa | 0 mm | - | - | - |
| 1777674245 | 18.89° C | 35% | 1016.6 hPa | 0 mm | - | - | - |
| 1777673343 | 20° C | 33% | 1016.6 hPa | 0 mm | - | - | - |
| 1777672623 | 19.44° C | 34% | 1016.7 hPa | 0 mm | - | - | - |
| 1777672443 | 19.44° C | 35% | 1016.8 hPa | 0 mm | - | - | - |
| 1777672398 | 19.44° C | 34% | 1016.8 hPa | 0 mm | - | - | - |
| 1777671363 | 18.33° C | 35% | 1017 hPa | 0 mm | - | - | - |
| 1777671317 | 18.33° C | 34% | 1017.1 hPa | 0 mm | - | - | - |
| 1777670823 | 18.89° C | 36% | 1017.2 hPa | 0 mm | - | - | - |
| 1777669743 | 18.89° C | 35% | 1017.6 hPa | 0 mm | - | - | - |
| 1777669203 | 18.89° C | 34% | 1017.6 hPa | 0 mm | - | - | - |
| 1777667043 | 18.33° C | 36% | 1018.3 hPa | 0 mm | - | - | - |
* Rain latest hour (hover to see other rain measurements)
** Current wind speed in m/s (hover to see current wind gust speed)